Startpagina
METAR-TAF:

METAR-TAF

Vliegvelden :

Ipiales, Colombia

breedte: 00-49N, lengte: 077-38W, hoogte: 2961 m

Actueel weer

Dit bericht is 11 uur en het 37 minuten geleden gemaakt, om 23:00 UTC
Weinig wind
Temperatuur 11°C
Vochtigheid 94%
Druk 1030 hPa
Zicht: 9000 m
Geheel bewolkt op 1400 ft
lichte regen

METAR: SKIP 272300Z 00000KT 9000 -RA OVC014 11/10 A3042

Tijdstip: 05:37 (10:37 UTC)


TAF: ontbreekt

Waarnemingen en weersverwachtingen van meer dan 4000 vliegvelden (METAR en TAF).

De beschikbare stations zijn de gele en rode punten op de kaart.

Ga met uw muis naar het station om de naam te zien.

Klik dan om waarnemingen en weersverwachtingen te zien.

kaart wijzigen: klik op de groene knoppen met een zwart kruis om in te zoomen, op de groene knop met een streepje om uit te zoomen of op de groene pijlen voor aangrenzende kaarten.


METAR-TAF: